Beaver Bay, MN

2:32 AM CDT on August 28, 2016 (GMT -0500)
Silver Bay Municipal

Weather History for KBFW - February, 2014

Change the Weather History Date:

Friday, February 28, 2014

  Actual Average Record
Temperature  
Mean Temperature -10 °F -  
Max Temperature 8 °F 25 °F 48 °F (2004)
Min Temperature -29 °F 6 °F -29 °F (2014)
Degree Days  
Heating Degree Days 76    
Moisture  
Dew Point -16 °F    
Average Humidity 68    
Maximum Humidity 83    
Minimum Humidity 52    
Precipitation  
Precipitation 0.00 in - - ()
Sea Level Pressure  
Sea Level Pressure 29.92 in    
Wind  
Wind Speed 1 mph (SSW)    
Max Wind Speed 7 mph    
Max Gust Speed -    
Visibility 10 miles    
Events      
Averages and records for this station are not official NWS values.
T = Trace of Precipitation, MM = Missing Value Source: NWS Daily Summary

Daily Weather History Graph

Daily Weather History Graph

Search for Another Location

Airport or City:

Trip Planner

Search our weather history database for the weather conditions in past years. The results will help you decide how hot, cold, wet, or windy it might be!

Date:

Astronomy

Feb. 28, 2014 Rise Set
Actual Time 6:47 AM CST 5:49 PM CST
Civil Twilight 6:16 AM CST 6:20 PM CST
Nautical Twilight 5:41 AM CST 6:55 PM CST
Astronomical Twilight 5:06 AM CST 7:31 PM CST
Moon 6:03 AM CST 5:27 PM CST
Length of Visible Light 12h 03m
Length of Day
11h 01m
Waning Crescent, 1% of the Moon is Illuminated
Feb 28
Waning Crescent
Mar 1
New
Mar 8
First Quarter
Mar 16
Full
Mar 23
Last Quarter

Hourly Weather History & Observations

Time (CST) Temp. Windchill Dew Point Humidity Pressure Visibility Wind Dir Wind Speed Gust Speed Precip Events Conditions
12:13 AM -27.4 °F - -34.6 °F 69% 30.01 in 10.0 mi Calm Calm - N/A   Clear
12:33 AM -27.4 °F - -34.6 °F 69% 30.01 in 10.0 mi Calm Calm - N/A   Clear
12:53 AM -27.4 °F - -34.6 °F 69% 30.00 in 10.0 mi Calm Calm - N/A   Clear
1:13 AM -27.4 °F - -32.8 °F 75% 30.00 in 10.0 mi Calm Calm - N/A   Clear
1:34 AM -27.4 °F - -34.6 °F 69% 29.99 in 10.0 mi Calm Calm - N/A   Clear
1:53 AM -27.4 °F - -32.8 °F 75% 29.99 in 10.0 mi Calm Calm - N/A   Clear
2:13 AM -29.2 °F - -34.6 °F 75% 29.99 in 10.0 mi Calm Calm - N/A   Clear
2:33 AM -29.2 °F - -34.6 °F 75% 29.98 in 10.0 mi Calm Calm - N/A   Clear
2:53 AM -27.4 °F - -32.8 °F 75% 29.98 in 10.0 mi Calm Calm - N/A   Clear
3:13 AM -27.4 °F - -34.6 °F 69% 29.97 in 10.0 mi Calm Calm - N/A   Clear
3:33 AM -27.4 °F - -34.6 °F 69% 29.97 in 10.0 mi Calm Calm - N/A   Clear
3:53 AM -25.6 °F - -32.8 °F 69% 29.97 in 10.0 mi Calm Calm - N/A   Clear
4:13 AM -27.4 °F - -34.6 °F 69% 29.96 in 10.0 mi Calm Calm - N/A   Clear
4:33 AM -25.6 °F - -32.8 °F 69% 29.96 in 10.0 mi Calm Calm - N/A   Clear
4:53 AM -25.6 °F - -31.0 °F 76% 29.96 in 10.0 mi Calm Calm - N/A   Clear
5:13 AM -25.6 °F - -31.0 °F 76% 29.96 in 10.0 mi Calm Calm - N/A   Clear
5:33 AM -25.6 °F - -31.0 °F 76% 29.96 in 10.0 mi Calm Calm - N/A   Clear
5:53 AM -23.8 °F - -27.4 °F 83% 29.95 in 10.0 mi Calm Calm - N/A   Clear
6:13 AM -22.0 °F - -27.4 °F 76% 29.95 in 10.0 mi Calm Calm - N/A   Clear
6:33 AM -20.2 °F - -27.4 °F 69% 29.94 in 10.0 mi Calm Calm - N/A   Clear
6:53 AM -20.2 °F - -25.6 °F 76% 29.93 in 10.0 mi Calm Calm - N/A   Clear
7:13 AM -18.4 °F - -23.8 °F 76% 29.93 in 10.0 mi Calm Calm - N/A   Clear
7:33 AM -14.8 °F - -20.2 °F 77% 29.94 in 10.0 mi Calm Calm - N/A   Clear
7:53 AM -14.8 °F - -20.2 °F 77% 29.95 in 10.0 mi Calm Calm - N/A   Scattered Clouds
8:13 AM -13.0 °F - -18.4 °F 77% 29.94 in 10.0 mi Calm Calm - N/A   Scattered Clouds
8:34 AM -9.4 °F - -16.6 °F 71% 29.93 in 10.0 mi Calm Calm - N/A   Clear
8:53 AM -5.8 °F - -14.8 °F 65% 29.92 in 10.0 mi Calm Calm - N/A   Clear
9:13 AM -4.0 °F -16.3 °F -13.0 °F 65% 29.90 in 10.0 mi SSE 5.8 mph - N/A   Clear
9:33 AM -2.2 °F -12.5 °F -11.2 °F 66% 29.90 in 10.0 mi SSE 4.6 mph - N/A   Clear
9:53 AM -2.2 °F -12.5 °F -11.2 °F 66% 29.90 in 10.0 mi SSE 4.6 mph - N/A   Clear
10:13 AM -2.2 °F -15.6 °F -11.2 °F 66% 29.89 in 10.0 mi SSE 6.9 mph - N/A   Clear
10:33 AM -0.4 °F -10.4 °F -11.2 °F 60% 29.89 in 10.0 mi SSE 4.6 mph - N/A   Scattered Clouds
10:53 AM -0.4 °F -13.4 °F -11.2 °F 60% 29.88 in 10.0 mi SE 6.9 mph - N/A   Clear
11:13 AM -0.4 °F -13.4 °F -9.4 °F 66% 29.88 in 10.0 mi SE 6.9 mph - N/A   Clear
11:33 AM -0.4 °F -13.4 °F -9.4 °F 66% 29.87 in 10.0 mi SSE 6.9 mph - N/A   Clear
11:53 AM -0.4 °F -10.4 °F -9.4 °F 66% 29.86 in 10.0 mi SSE 4.6 mph - N/A   Clear
12:13 PM -0.4 °F -8.3 °F -9.4 °F 66% 29.86 in 10.0 mi SE 3.5 mph - N/A   Clear
12:33 PM 1.4 °F -6.2 °F -9.4 °F 61% 29.85 in 10.0 mi SSE 3.5 mph - N/A   Clear
12:53 PM 1.4 °F -9.9 °F -9.4 °F 61% 29.83 in 10.0 mi SE 5.8 mph - N/A   Clear
1:13 PM 3.2 °F - -9.4 °F 56% 29.82 in 10.0 mi Calm Calm - N/A   Clear
1:33 PM 3.2 °F - -9.4 °F 56% 29.81 in 10.0 mi Calm Calm - N/A   Clear
1:53 PM 3.2 °F -7.8 °F -9.4 °F 56% 29.81 in 10.0 mi SE 5.8 mph - N/A   Scattered Clouds
2:14 PM 3.2 °F -7.8 °F -9.4 °F 56% 29.82 in 10.0 mi SSE 5.8 mph - N/A   Clear
2:33 PM 3.2 °F - -7.6 °F 61% 29.83 in 10.0 mi Calm Calm - N/A   Scattered Clouds
2:53 PM 5.0 °F -4.1 °F -7.6 °F 56% 29.82 in 10.0 mi SSE 4.6 mph - N/A   Scattered Clouds
3:13 PM 5.0 °F -4.1 °F -7.6 °F 56% 29.82 in 10.0 mi SSE 4.6 mph - N/A   Clear
3:34 PM 6.8 °F -0.1 °F -7.6 °F 52% 29.82 in 10.0 mi South 3.5 mph - N/A   Clear
3:53 PM 5.0 °F - -7.6 °F 56% 29.83 in 10.0 mi Calm Calm - N/A   Clear
4:13 PM 6.8 °F - -5.8 °F 56% 29.84 in 10.0 mi Calm Calm - N/A   Clear
4:33 PM 8.6 °F 2.0 °F -5.8 °F 52% 29.83 in 10.0 mi SW 3.5 mph - N/A   Clear
4:54 PM 6.8 °F -0.1 °F -5.8 °F 56% 29.84 in 10.0 mi West 3.5 mph - N/A   Clear
5:13 PM 6.8 °F -3.5 °F -5.8 °F 56% 29.86 in 10.0 mi WSW 5.8 mph - N/A   Clear
5:33 PM 6.8 °F - -5.8 °F 56% 29.86 in 10.0 mi Calm Calm - N/A   Clear
5:53 PM 5.0 °F - -5.8 °F 61% 29.87 in 10.0 mi Calm Calm - N/A   Clear
6:13 PM 3.2 °F - -5.8 °F 66% 29.88 in 10.0 mi Calm Calm - N/A   Clear
6:33 PM 3.2 °F - -5.8 °F 66% 29.90 in 10.0 mi Calm Calm - N/A   Clear
6:53 PM 1.4 °F - -5.8 °F 72% 29.90 in 10.0 mi Calm Calm - N/A   Clear
7:14 PM 1.4 °F - -5.8 °F 72% 29.92 in 10.0 mi Calm Calm - N/A   Clear
7:33 PM 1.4 °F - -5.8 °F 72% 29.93 in 10.0 mi Calm Calm - N/A   Clear
7:53 PM 1.4 °F - -5.8 °F 72% 29.93 in 10.0 mi Calm Calm - N/A   Clear
8:13 PM 1.4 °F -9.9 °F -5.8 °F 72% 29.94 in 10.0 mi West 5.8 mph - N/A   Clear
8:33 PM 1.4 °F -11.3 °F -5.8 °F 72% 29.94 in 10.0 mi WNW 6.9 mph - N/A   Clear
8:53 PM 1.4 °F -11.3 °F -5.8 °F 72% 29.95 in 10.0 mi NW 6.9 mph - N/A   Clear
9:13 PM 1.4 °F -11.3 °F -5.8 °F 72% 29.95 in 10.0 mi NW 6.9 mph - N/A   Clear
9:33 PM -0.4 °F -12.0 °F -7.6 °F 72% 29.96 in 10.0 mi NW 5.8 mph - N/A   Clear
9:53 PM -0.4 °F -13.4 °F -7.6 °F 72% 29.97 in 10.0 mi NW 6.9 mph - N/A   Clear
10:13 PM -2.2 °F -10.4 °F -7.6 °F 78% 29.98 in 10.0 mi NW 3.5 mph - N/A   Clear
10:30 PM -0.4 °F -12.0 °F -9.4 °F 66% 29.98 in 10.0 mi NW 5.8 mph - N/A   Clear
10:34 PM -0.4 °F -12.0 °F -9.4 °F 66% 29.99 in 10.0 mi NW 5.8 mph - N/A   Clear
10:53 PM -2.2 °F -12.5 °F -9.4 °F 71% 30.00 in 10.0 mi NW 4.6 mph - N/A   Clear
11:13 PM -2.2 °F -12.5 °F -9.4 °F 71% 30.01 in 10.0 mi NW 4.6 mph - N/A   Clear
11:33 PM -2.2 °F -10.4 °F -7.6 °F 78% 30.03 in 10.0 mi WNW 3.5 mph - N/A   Clear
11:53 PM -2.2 °F - -9.4 °F 71% 30.03 in 10.0 mi Calm Calm - N/A   Clear